Wind_Speed
31 31 32 32 32 33 33 32 31 31 31 31 32 33 33 34 34 33 34 35 36 36 37 36 36 37 37 36 37 37 37 38 38 37 37 37 37 38 38 37 37 37 37
30 30 30 30 31 31 30 30 30 31 31 32 32 32 32 32 33 33 32 33 34 34 34 35 35 35 35 35 35 35 36 37 37 36 37 37 37 38 37 37 37 38 37
29 29 29 30 30 29 29 30 30 30 31 32 32 32 31 31 32 32 32 32 32 32 33 33 34 34 33 34 35 35 35 36 36 36 36 37 37 37 37 37 37 38 37
28 28 28 28 29 29 28 29 30 30 30 30 30 30 30 30 30 30 30 31 31 32 32 32 33 33 32 33 34 34 35 35 35 35 35 36 36 36 36 37 37 37 37
26 27 27 27 28 28 28 28 29 29 30 30 30 30 30 30 29 29 29 29 29 29 30 31 31 31 32 32 33 33 33 34 34 34 35 35 35 35 36 36 36 36 36
26 27 28 27 27 28 28 28 28 29 29 29 29 28 28 28 28 28 29 29 29 28 29 30 30 30 31 32 32 32 33 33 33 33 34 34 34 35 35 35 35 35 35
27 27 27 27 28 28 28 29 29 28 28 28 27 27 27 27 28 28 29 28 29 29 29 30 30 30 31 32 32 31 32 32 33 33 34 34 34 34 34 33 34 34 34
25 26 27 26 26 27 27 28 28 28 28 28 28 27 27 28 28 28 28 28 28 29 29 29 29 30 30 31 31 31 31 32 33 33 33 33 33 33 32 32 32 32 33
24 24 25 25 26 26 27 27 28 28 28 29 29 28 28 29 29 29 27 27 27 27 28 28 28 28 28 29 29 30 30 31 32 32 32 32 32 32 32 31 31 31 31
23 23 24 25 26 26 27 27 27 27 28 28 28 28 28 28 28 28 27 28 27 27 26 27 27 27 28 28 28 28 29 29 30 30 30 30 30 30 31 31 30 31 31
22 23 25 25 25 26 27 27 27 27 28 28 28 28 28 28 27 27 27 27 26 25 25 26 26 27 27 27 27 27 27 27 27 27 27 27 27 28 29 30 30 30 29
22 23 25 25 25 25 26 26 27 27 28 28 27 27 27 27 27 27 27 26 26 25 25 24 25 25 24 24 24 24 25 25 25 25 25 25 25 25 26 26 27 27 26
23 25 25 25 25 25 25 26 26 26 26 26 26 25 25 26 26 26 26 25 25 25 25 24 24 24 23 22 22 22 23 24 23 23 23 23 23 23 23 23 23 23 23
24 24 24 25 25 25 25 25 24 24 25 25 24 24 24 24 24 24 23 23 22 23 23 22 22 22 22 22 22 22 22 22 22 22 22 22 22 22 22 21 20 21 22
23 23 23 23 24 24 24 24 24 24 24 23 23 22 22 22 22 21 21 21 21 21 21 21 20 20 21 21 21 22 22 21 21 21 21 21 21 21 20 20 20 20 20
22 22 23 23 23 23 22 22 22 22 21 21 21 21 21 21 21 21 21 21 21 21 21 21 20 20 21 22 22 21 21 21 20 20 20 20 20 20 19 19 20 20 20
22 23 23 22 22 21 20 20 20 20 20 20 20 20 20 20 20 21 21 21 21 21 20 20 20 20 21 21 21 21 22 21 20 20 19 19 19 19 19 19 20 19 19
21 21 21 21 20 20 19 19 18 18 18 19 19 19 20 20 20 20 20 20 21 21 20 20 20 20 20 20 20 21 21 21 20 19 19 18 18 18 19 19 19 19 18
20 20 19 19 19 18 18 18 18 18 17 18 18 17 17 18 18 18 19 20 20 20 20 20 20 19 19 19 20 20 20 20 20 19 18 18 17 17 17 18 18 18 17
21 19 19 18 17 17 17 17 17 17 16 16 16 16 16 16 17 17 18 18 19 19 19 19 19 19 20 20 20 20 19 19 19 19 18 17 17 17 17 17 17 17 17
19 19 19 17 17 17 16 16 15 15 15 16 16 16 16 16 16 17 17 17 18 19 19 19 20 20 21 21 20 19 18 18 18 18 18 17 17 17 16 16 16 16 16
18 18 18 17 17 17 16 16 16 15 15 16 16 16 16 16 16 17 17 18 18 18 18 19 19 19 20 20 19 18 18 17 17 17 17 17 17 17 17 16 15 15 15
18 18 17 16 16 16 15 15 15 15 15 15 16 16 16 16 17 17 17 18 18 18 18 19 19 19 19 19 18 18 17 17 17 17 16 17 17 17 16 16 15 15 15
18 18 17 16 16 16 15 15 15 16 16 16 16 16 16 16 17 17 17 17 17 18 18 18 18 18 17 17 17 17 16 17 17 17 17 17 16 16 15 15 15 15 15
17 17 17 16 16 16 16 15 16 16 16 16 16 17 17 17 17 17 17 17 17 17 17 17 17 17 17 16 16 16 16 16 16 16 16 16 16 15 15 15 15 15 15
17 17 17 17 16 16 16 16 16 15 15 15 16 16 16 16 16 17 17 17 17 17 17 17 16 17 16 15 15 15 16 16 16 16 16 16 16 16 16 16 16 16 16
Wind_Direction
268 268 268 268 268 269 268 267 267 268 269 270 272 274 273 274 274 273 273 270 267 268 267 268 268 267 268 267 268 266 267 269 270 271 272 272 271 269 268 265 264 262 263
269 269 269 269 269 269 268 267 267 269 269 271 273 273 273 272 272 273 275 272 269 267 268 267 266 267 267 267 268 268 269 270 269 271 272 272 271 268 267 265 264 264 264
269 269 269 268 269 270 269 267 268 270 271 271 273 273 273 273 273 274 276 273 269 268 267 266 265 266 267 268 269 269 269 270 270 271 271 272 270 268 267 266 266 265 265
268 269 270 269 268 269 269 269 270 271 273 273 272 272 274 273 274 275 275 273 269 268 266 264 265 265 266 268 268 269 270 271 271 270 271 271 270 268 268 267 266 265 266
269 270 270 269 268 267 267 269 270 271 273 273 272 273 273 273 274 274 274 272 270 268 267 265 265 266 265 267 268 269 270 272 272 271 271 270 269 268 267 267 267 267 266
272 273 271 270 268 267 268 269 269 271 272 272 273 271 270 270 272 273 272 272 271 271 269 267 267 268 266 267 269 270 270 271 271 271 270 269 269 268 268 268 268 268 266
273 273 271 270 268 268 270 270 271 271 272 272 271 269 268 269 272 272 271 273 274 272 269 268 269 268 267 266 269 271 270 271 272 272 270 269 268 269 269 269 268 268 266
274 273 272 271 270 270 271 271 271 272 272 271 270 268 268 270 271 271 271 274 274 272 270 269 269 268 269 268 268 270 271 272 272 271 271 269 268 269 269 268 268 267 265
275 274 274 273 273 274 275 273 272 272 273 272 271 270 268 268 269 269 271 273 273 273 272 269 268 267 268 268 269 270 271 273 272 271 270 268 268 268 268 267 267 267 265
275 275 276 276 276 275 275 274 273 272 273 273 273 272 268 267 267 269 271 273 273 272 272 271 270 268 269 271 269 271 272 273 272 270 269 269 268 268 268 268 267 267 265
276 275 276 277 278 277 276 274 273 273 273 274 273 272 269 266 266 270 272 273 272 272 272 272 270 270 272 272 270 271 272 271 271 270 269 270 270 269 268 268 267 266 264
277 278 280 279 278 278 277 275 274 274 274 273 273 272 268 265 266 269 270 270 271 271 271 271 271 271 272 273 272 272 270 271 272 271 270 271 270 269 270 271 269 266 263
277 280 281 280 278 278 277 276 275 273 272 272 273 270 267 265 266 267 267 268 269 269 271 273 273 271 271 273 273 271 271 272 271 269 269 268 268 268 270 270 268 267 265
279 280 280 279 279 279 277 276 276 275 273 272 273 271 267 267 267 266 265 264 266 268 270 273 273 270 269 270 271 272 273 272 269 267 267 267 267 267 266 266 266 267 265
283 283 282 281 280 278 277 276 276 276 275 271 272 271 269 268 268 269 266 264 265 267 268 271 272 271 269 270 272 272 272 271 268 267 267 267 266 264 262 261 264 266 266
283 285 285 282 282 280 277 276 275 273 271 271 272 271 269 267 268 270 269 266 265 267 268 269 272 272 270 271 272 271 270 269 267 267 267 266 264 262 262 263 266 267 267
285 287 287 283 282 279 277 276 275 273 271 270 271 269 268 267 268 270 270 267 265 266 267 268 270 270 271 272 272 271 270 268 266 266 266 265 262 261 263 265 267 267 267
286 287 287 285 283 279 276 275 274 273 273 272 272 271 269 268 269 270 270 268 266 265 267 267 267 267 271 273 273 272 270 266 264 264 264 263 263 263 264 264 265 266 266
284 287 287 284 281 278 276 275 274 274 275 274 272 270 270 270 269 269 270 269 267 267 268 268 267 266 269 273 275 274 270 265 262 260 261 262 264 265 264 262 263 264 263
283 284 285 282 280 279 277 275 274 275 274 273 272 272 272 273 271 271 271 272 270 268 268 269 268 269 271 273 275 276 271 266 261 259 260 262 264 265 264 262 262 260 261
285 283 282 281 279 279 277 275 274 274 274 272 270 271 271 271 272 272 271 272 271 270 271 272 271 271 273 276 276 274 270 265 262 258 259 261 263 263 262 260 257 257 259
285 284 282 279 279 277 277 276 276 275 274 271 270 269 269 271 274 274 273 272 272 273 274 275 276 276 276 277 276 272 267 264 262 262 261 261 261 262 261 258 255 254 255
283 282 280 280 279 277 276 277 276 275 273 271 270 270 272 273 273 275 276 275 274 275 277 279 279 278 277 276 274 271 267 263 263 261 260 262 262 262 259 252 250 252 253
282 282 279 278 278 278 277 277 276 274 272 271 270 270 272 274 276 276 277 276 276 277 280 281 281 280 278 274 271 269 267 263 262 262 262 262 261 258 254 249 249 251 253
282 281 279 279 279 278 277 278 278 276 273 271 270 269 270 274 276 277 278 278 279 279 281 283 284 281 277 273 271 270 267 264 263 263 262 260 258 256 251 247 247 249 250
279 280 281 281 280 278 277 277 277 276 274 274 272 271 272 274 276 278 281 282 281 281 281 282 283 281 277 274 272 270 268 265 263 262 260 258 257 256 253 250 248 247 245
Height
5606 5606 5606 5606 5606 5605 5605 5604 5604 5603 5603 5602 5602 5600 5599 5598 5598 5597 5596 5596 5596 5596 5596 5596 5596 5597 5597 5597 5597 5598 5599 5599 5600 5600 5598 5598 5597 5597 5597 5597 5598 5599 5600
5596 5596 5596 5596 5596 5596 5595 5595 5595 5594 5594 5593 5593 5592 5591 5590 5589 5588 5587 5587 5586 5586 5586 5586 5587 5587 5587 5588 5588 5588 5588 5588 5589 5589 5588 5588 5587 5587 5587 5587 5588 5589 5589
5587 5587 5587 5587 5587 5587 5586 5586 5586 5585 5585 5584 5584 5583 5582 5581 5580 5579 5579 5578 5577 5577 5577 5577 5577 5577 5578 5578 5578 5578 5578 5578 5579 5579 5579 5577 5577 5577 5577 5577 5578 5578 5579
5578 5578 5578 5578 5578 5578 5578 5577 5577 5577 5576 5575 5575 5574 5573 5573 5572 5571 5570 5569 5569 5568 5568 5568 5568 5569 5569 5569 5569 5569 5568 5568 5568 5569 5569 5568 5567 5567 5567 5568 5568 5568 5568
5570 5569 5569 5569 5569 5569 5569 5569 5569 5568 5567 5567 5566 5565 5565 5564 5564 5563 5562 5561 5561 5560 5559 5559 5560 5560 5560 5560 5560 5559 5559 5559 5559 5559 5558 5558 5557 5557 5557 5557 5557 5558 5558
5561 5561 5560 5560 5560 5560 5560 5560 5560 5559 5559 5558 5557 5557 5556 5556 5555 5554 5553 5553 5552 5552 5551 5551 5551 5551 5551 5551 5550 5550 5550 5549 5549 5549 5549 5548 5548 5547 5546 5546 5547 5547 5548
5553 5552 5551 5551 5551 5552 5552 5551 5551 5551 5550 5549 5548 5548 5547 5547 5546 5545 5545 5544 5543 5543 5543 5543 5543 5542 5542 5542 5541 5540 5540 5539 5540 5539 5539 5538 5538 5537 5537 5537 5537 5537 5538
5544 5543 5543 5543 5543 5543 5542 5542 5542 5542 5541 5540 5540 5539 5539 5538 5537 5537 5536 5535 5535 5535 5534 5534 5534 5533 5533 5533 5532 5531 5531 5530 5530 5529 5529 5529 5528 5527 5527 5527 5527 5527 5528
5536 5535 5535 5535 5535 5534 5533 5533 5533 5532 5532 5531 5530 5530 5530 5529 5529 5528 5527 5527 5526 5526 5526 5525 5525 5525 5524 5524 5523 5523 5522 5521 5520 5519 5519 5518 5518 5517 5517 5517 5518 5518 5519
5529 5528 5528 5527 5527 5526 5525 5524 5523 5523 5522 5522 5521 5521 5520 5520 5519 5519 5519 5518 5518 5518 5517 5517 5516 5516 5515 5514 5514 5514 5513 5512 5511 5510 5509 5509 5508 5508 5507 5508 5509 5509 5510
5522 5522 5521 5520 5519 5518 5516 5515 5514 5514 5513 5513 5512 5511 5511 5511 5510 5510 5510 5510 5510 5509 5509 5508 5508 5507 5507 5506 5505 5505 5504 5503 5502 5502 5501 5501 5500 5499 5499 5499 5499 5500 5501
5515 5514 5513 5512 5510 5509 5508 5506 5505 5504 5504 5503 5503 5502 5502 5502 5502 5502 5501 5501 5501 5501 5501 5501 5500 5499 5498 5498 5497 5497 5496 5495 5494 5494 5494 5493 5492 5491 5491 5491 5491 5491 5492
5508 5506 5505 5503 5502 5500 5499 5498 5497 5496 5495 5495 5495 5494 5494 5494 5493 5493 5493 5493 5493 5493 5493 5493 5492 5491 5491 5490 5490 5489 5488 5487 5487 5486 5486 5486 5485 5485 5484 5484 5484 5483 5483
5500 5498 5497 5495 5494 5492 5491 5489 5489 5488 5487 5487 5486 5486 5486 5486 5486 5485 5485 5485 5485 5485 5485 5485 5485 5484 5484 5484 5483 5482 5481 5480 5479 5479 5479 5479 5478 5478 5478 5478 5478 5477 5477
5492 5490 5489 5487 5486 5484 5483 5481 5481 5480 5479 5479 5479 5479 5479 5479 5478 5478 5478 5478 5478 5478 5478 5478 5478 5477 5477 5476 5476 5475 5474 5473 5472 5472 5472 5472 5471 5471 5471 5471 5471 5471 5471
5484 5483 5481 5480 5478 5477 5475 5474 5473 5472 5472 5472 5472 5472 5471 5472 5471 5472 5471 5472 5472 5472 5472 5472 5471 5471 5470 5470 5469 5468 5467 5466 5466 5466 5465 5465 5465 5465 5465 5465 5465 5465 5465
5477 5476 5474 5472 5471 5469 5468 5468 5467 5466 5465 5465 5465 5465 5465 5465 5465 5465 5465 5465 5465 5465 5465 5465 5465 5464 5464 5463 5462 5461 5460 5460 5460 5460 5459 5459 5459 5459 5459 5460 5459 5459 5459
5470 5469 5468 5466 5464 5463 5462 5462 5461 5460 5460 5459 5459 5458 5458 5458 5459 5459 5459 5459 5459 5459 5459 5459 5458 5457 5457 5456 5455 5454 5453 5453 5453 5453 5453 5453 5453 5453 5453 5453 5453 5454 5454
5464 5462 5461 5459 5458 5457 5456 5455 5455 5454 5454 5453 5453 5453 5453 5453 5453 5453 5453 5453 5453 5453 5453 5452 5451 5451 5450 5449 5448 5447 5447 5446 5446 5446 5447 5447 5447 5447 5447 5447 5448 5448 5449
5457 5456 5455 5453 5452 5451 5450 5450 5449 5449 5448 5448 5448 5448 5448 5448 5448 5448 5447 5447 5447 5447 5447 5446 5445 5445 5444 5443 5442 5441 5440 5440 5440 5440 5441 5441 5441 5442 5442 5442 5443 5443 5444
5451 5450 5449 5448 5447 5446 5445 5445 5444 5443 5443 5443 5443 5442 5443 5443 5443 5442 5442 5442 5442 5441 5441 5440 5439 5439 5438 5437 5436 5435 5434 5434 5434 5434 5435 5435 5436 5436 5437 5437 5438 5438 5439
5446 5445 5444 5443 5442 5441 5440 5439 5439 5438 5438 5438 5438 5438 5437 5437 5437 5437 5437 5436 5436 5436 5435 5434 5434 5433 5432 5431 5430 5429 5429 5429 5429 5429 5429 5430 5430 5431 5431 5432 5433 5433 5434
5440 5439 5438 5437 5437 5436 5435 5435 5434 5434 5433 5433 5433 5433 5433 5433 5432 5432 5432 5431 5431 5430 5430 5429 5428 5427 5426 5425 5424 5424 5423 5423 5424 5424 5424 5425 5425 5426 5426 5427 5428 5429 5429
5435 5434 5433 5432 5432 5431 5431 5430 5429 5429 5428 5428 5428 5428 5428 5428 5427 5427 5426 5426 5425 5425 5424 5423 5422 5421 5420 5419 5419 5418 5418 5418 5418 5419 5419 5420 5420 5421 5421 5422 5423 5424 5425
5430 5429 5428 5428 5427 5426 5426 5425 5424 5424 5423 5423 5423 5423 5423 5423 5422 5422 5421 5420 5420 5419 5419 5418 5417 5416 5415 5414 5414 5414 5413 5413 5414 5414 5414 5415 5415 5416 5417 5417 5419 5419 5420
5425 5424 5423 5423 5422 5421 5421 5420 5420 5419 5418 5418 5418 5418 5418 5417 5417 5416 5416 5415 5415 5414 5413 5413 5412 5411 5410 5410 5409 5409 5408 5408 5408 5409 5409 5410 5410 5411 5412 5413 5414 5415 5416